Regional Weather Roundup
Issued by NWS

Home | Current Version | Previous Version | Text Only | Print | Product List | Glossary On
Versions: 1 2 3 4 5 6 7 8 9 10 11 12 13 14 15 16 17 18 19 20 21 22 23 24 25 26 27 28 29 30 31 32 33 34 35 36 37 38 39 40 41 42 43 44 45 46 47 48 49 50
000
ASUS46 KLOX 031413
RWRCA

SOUTHERN CALIFORNIA WEATHER ROUNDUP
NATIONAL WEATHER SERVICE OXNARD CALIFORNIA
700 AM PDT MON AUG 03 2015

NOTE: "FAIR" INDICATES FEW OR NO CLOUDS BELOW 12,000 FEET WITH NO
SIGNIFICANT WEATHER AND/OR OBSTRUCTIONS TO VISIBILITY.

  -  STATIONS PRECEEDED BY AN ASTERISK (*) ARE NOT NWS OR FAA
     STATIONS AND ARE NOT SUBJECT TO NWS AND FAA QUALITY CONTROL.

CAZ041-042-087-031500-
LA AND ORANGE COUNTY COASTAL AREAS


CITY           SKY/WX    TMP DP  RH WIND       PRES   REMARKS
L.A. DOWNTOWN  CLEAR     69  63  81 CALM      29.89R
L.A. AIRPORT   PTCLDY    68  64  87 VRB3      29.89S
LONG BEACH     CLOUDY    71  63  75 CALM      29.89R

CITY           SKY/WX    TMP DP  RH WIND       PRES   REMARKS
AVALON           N/A     64 N/A N/A MISG        N/A
FULLERTON      CLOUDY    70  64  81 N3        29.89R
*GETTY CENTER    N/A     63  59  88 NE3         N/A
HAWTHORNE      CLEAR     69  62  78 CALM      29.89S
*LOS ALAMITOS  CLOUDY    69  65  86 E5        29.90R
*REDONDO BEACH   N/A     63  59  88 CALM      29.89S
SANTA ANA      CLOUDY    68  63  84 CALM      29.89S
STA MONICA APT CLEAR     66  61  84 CALM      29.89S
*STA MON PIER    N/A     68  62  83 CALM      29.88S
TORRANCE       PTCLDY    66  63  88 VRB7      29.90
*UCLA            N/A     66  61  82 CALM      29.87

$$

CAZ547-548-048-031500-
LA COUNTY VALLEYS AND INLAND EMPIRE


CITY           SKY/WX    TMP DP  RH WIND       PRES   REMARKS
BURBANK        CLEAR     67  59  75 CALM      29.90R
VAN NUYS       CLEAR     67  62  84 CALM      29.90S

CITY           SKY/WX    TMP DP  RH WIND       PRES   REMARKS
CORONA AIRPORT MOSUNNY   64  64 100 CALM      29.91R FOG
CHINO          MOSUNNY   66  63  90 NW3       29.92R
MARCH AFB      SUNNY     66  66  97 NW5       29.93R
*NORTHRIDGE      N/A     64  59  82 CALM        N/A
ONTARIO        MOSUNNY   66  61  84 W5        29.91R
*PASADENA        N/A     66  63  88 E1          N/A
POMONA         CLOUDY    64  63  94 W6        29.94
RIVERSIDE      SUNNY     66  63  90 W3        29.92R
SAN BERNARDINO MOSUNNY   66  61  82 CALM      29.92  HAZE
*WHITEMAN AP   NOT AVBL
*WOODLAND HILL   N/A     64  61  88 SE1         N/A

$$

CAZ054-055-031500-
LA AND SAN BERNARDINO COUNTY MOUNTAINS


CITY           SKY/WX    TMP DP  RH WIND       PRES   REMARKS
*BIG BEAR AIRP SUNNY     48  34  57 CALM      30.23R
SANDBERG       CLEAR     68  51  54 NW17      30.07S

$$

CAZ028-029-059-060-099-031500-
ANTELOPE VALLEY AND SURROUNDING AREAS


CITY           SKY/WX    TMP DP  RH WIND       PRES   REMARKS
LANCASTER      SUNNY     70  48  45 CALM      29.94R
PALMDALE       SUNNY     72  48  42 S8        29.95R

CITY           SKY/WX    TMP DP  RH WIND       PRES   REMARKS
29 PALMS       SUNNY     80  43  26 NW6       29.95R
BARSTOW/DAGGET SUNNY     76  46  34 W8        29.89R
BISHOP         SUNNY     64  45  49 NW6       30.02R
CHINA LAKE     SUNNY     74  40  29 N3        29.90R
EDWARDS AFB    MOSUNNY   69  50  51 S7        29.92R
MOJAVE         SUNNY     73  50  43 W6        29.94R
NEEDLES        SUNNY     90  48  23 NW6       29.79R
VICTORVILLE    SUNNY     66  48  52 CALM      29.97R

$$

CAZ039-040-031500-
VENTURA AND SANTA BARBARA COUNTY COAST


CITY           SKY/WX    TMP DP  RH WIND       PRES   REMARKS
CAMARILLO      CLEAR     64  59  83 E5        29.89R
OXNARD AIRPORT PTCLDY    63  59  87 CALM      29.89R
*POINT MUGU    PTCLDY    64  59  83 N3        29.90R
SBA APT/GOLETA CLEAR     63  57  81 CALM      29.88R
*SANTA BARBARA   N/A     65  59  80 CALM      29.96R
*VENTURA         N/A     62  58  88 CALM      29.50S

$$

CAZ044-045-031500-
VENTURA COUNTY VALLEYS


CITY           SKY/WX    TMP DP  RH WIND       PRES   REMARKS
*SIMI VALLEY     N/A     60  58  91 CALM      29.86S
*FILLMORE        N/A     59  56  88 CALM      29.80S

$$

CAZ053-031500-
VENTURA COUNTY MOUNTAINS


CITY           SKY/WX    TMP DP  RH WIND       PRES   REMARKS

$$

CAZ034-035-036-031500-
CENTRAL COAST AND SANTA YNEZ VALLEY


CITY           SKY/WX    TMP DP  RH WIND       PRES   REMARKS
SAN LUIS OBISP MOCLDY    61  57  87 CALM      29.94S
SANTA MARIA    CLOUDY    64  58  80 E6        29.95S

CITY           SKY/WX    TMP DP  RH WIND       PRES   REMARKS
*CAL POLY SLO    N/A     59  57  94 E1G16       N/A
*LOMPOC        CLOUDY    63  55  77 CALM      29.96S
*PISMO BEACH     N/A     61  58  89 NE2       29.95S
*SANTA YNEZ    CLOUDY    61  54  77 NE3       29.96S

$$

CAZ037-038-051-031500-
SAN LUIS OBISPO COUNTY INTERIOR AND CUYAMA VALLEY


CITY           SKY/WX    TMP DP  RH WIND       PRES   REMARKS
*CUYAMA          N/A     63  53  69 E1        29.85R
PASO ROBLES    CLEAR     60  56  86 NW9       29.96S

$$

CAZ032-033-061-031500-
SOUTHERN DESERTS


CITY           SKY/WX    TMP DP  RH WIND       PRES   REMARKS
BLYTHE         SUNNY     86  49  27 N5        29.75R
IMPERIAL       SUNNY     84  48  28 CALM      29.72R
PALM SPRINGS   SUNNY     83  60  45 CALM      29.77R
THERMAL        SUNNY     86  58  38 N8        29.71R

$$

ELSEWHERE ACROSS THE WESTERN UNITED STATES AND MEXICO


CITY           SKY/WX    TMP DP  RH WIND       PRES   REMARKS
DENVER, CO     CLOUDY    71  51  49 SW3       30.10R
GRAND CANYON,  SUNNY     56  51  84 E3        30.25R
HONOLULU, HI   PTCLDY    79  68  69 NE8       29.87S
KAHULUI, MAUI  CLOUDY    75  70  83 NE9       29.88S
LAKE TAHOE, CA CLEAR     45  40  82 CALM      30.19R
LAS VEGAS, NV  MOSUNNY   86  41  20 CALM      29.84R
MAMMOTH LAKES, FAIR      48  37  66 NW3       30.24R
MEXICO CITY, M MOSUNNY   59  54  82 E6        30.30
PHOENIX, AZ    MOSUNNY   88  57  34 E6        29.82R
PORTLAND, OR   CLOUDY    68  54  60 NW8       29.92R
RENO, NV       MOSUNNY   64  49  57 NW5       30.08R
SALT LAKE CITY RAIN      63  60  90 NW15      30.07R
SAN DIEGO, CA  CLOUDY    70  61  73 VRB5      29.91R
SAN FRANCISCO, CLOUDY    64  53  67 W10       29.97R
SAN JOSE, CA   CLOUDY    63  54  72 SW6       29.97R
SEATTLE, WA    CLOUDY    64  55  72 SW5       29.93R
TIJUANA, MEX   CLOUDY    66  59  77 NW5       29.92R

$$

STATION/POSITION TIME  TEMP    WIND        PRES    VSBY  WAVE
                       AIR SEA DIR/SP/G                  HT/PER
                 (UTC) (F)     (DEG/KT/KT) (MB)    (MI)  (FT/S)
POINT ARGUELLO B NOT AVBL
WEST SANTA BARBA 1350   63 65  330/ 21/ 25 1011.9R         4/ 5
POINT CONCEPTION NOT AVBL
EAST SANTA BARBA 1400   68 69  100/  2/  4 1012.3R
SANTA MONICA BAY 1350   69 72   40/  8/ 10 1011.6R         4/ 6



USA.gov is the U.S. government's official web portal to all federal, state and local government web resources and services.